Weather History for Skagway, AK

Change the Weather History Date:

Monday, July 8, 2013

  Actual Average Record
Temperature  
Mean Temperature 58 °F -  
Max Temperature 63 °F 62 °F 83 °F (1965)
Min Temperature 53 °F 49 °F 37 °F (1988)
Degree Days  
Heating Degree Days 7    
Growing Degree Days 8 (Base 50)    
Moisture  
Dew Point 50 °F    
Average Humidity 78    
Maximum Humidity 94    
Minimum Humidity 59    
Precipitation  
Precipitation 0.30 in - - ()
Sea Level Pressure  
Sea Level Pressure 29.83 in    
Wind  
Wind Speed 7 mph (SSW)    
Max Wind Speed 22 mph    
Max Gust Speed 32 mph    
Visibility 9 miles    
Events Rain    
Averages and records for this station are not official NWS values.
T = Trace of Precipitation, MM = Missing Value Source: NWS Daily Summary

Daily Weather History Graph

Daily Weather History Graph

Search for Another Location

Airport:

Trip Planner

Search our weather history database for the weather conditions in past years. The results will help you decide how hot, cold, wet, or windy it might be!

Date:

Astronomy

Jul. 08, 2013 Rise Set
Actual Time 3:58 AM AKDT 10:13 PM AKDT
Civil Twilight 2:37 AM AKDT 11:33 PM AKDT
Nautical Twilight Sun does not rise Sun does not rise
Astronomical Twilight Sun does not rise Sun does not rise
Moon 5:06 AM AKDT (7/8) 9:40 PM AKDT (7/8)
Length of Visible Light 20h 55m
Length of Day
18h 14m
New Moon, 0% of the Moon is Illuminated
Jul 8
New Moon
Jul 15
First Quarter
Jul 22
Full
Jul 29
Last Quarter
Aug 6
New

Hourly Weather History & Observations

Time (AKDT) Temp. Dew Point Humidity Pressure Visibility Wind Dir Wind Speed Gust Speed Precip Events Conditions
12:30 AM 53.6 °F 50.0 °F 88% 29.86 in 8.0 mi Calm Calm - 0.01 in Rain Light Rain
12:48 AM 53.6 °F 51.8 °F 94% 29.84 in 6.0 mi NE 3.5 mph - 0.02 in Rain Light Rain
12:53 AM 54.0 °F 51.1 °F 90% 29.85 in 6.0 mi NNE 4.6 mph - 0.03 in Rain Light Rain
1:16 AM 53.6 °F 51.8 °F 94% 29.85 in 7.0 mi NNE 3.5 mph - 0.01 in Rain Light Rain
1:25 AM 55.4 °F 51.8 °F 88% 29.84 in 10.0 mi Calm Calm - 0.01 in Rain Light Rain
1:53 AM 54.0 °F 52.0 °F 93% 29.83 in 9.0 mi Calm Calm - 0.03 in Rain Light Rain
2:00 AM 53.6 °F 51.8 °F 94% 29.84 in 5.0 mi Calm Calm - 0.01 in Rain Light Rain
2:11 AM 55.4 °F 51.8 °F 88% 29.83 in 7.0 mi Calm Calm - 0.02 in Rain Light Rain
2:25 AM 53.6 °F 51.8 °F 94% 29.82 in 5.0 mi Calm Calm - 0.03 in Rain Light Rain
2:53 AM 54.0 °F 52.0 °F 93% 29.83 in 9.0 mi Calm Calm - 0.05 in Rain Light Rain
3:19 AM 55.4 °F 51.8 °F 88% 29.81 in 6.0 mi Variable 5.8 mph - 0.02 in Rain Light Rain
3:48 AM 55.4 °F 51.8 °F 88% 29.82 in 8.0 mi Calm Calm - 0.05 in Rain Light Rain
3:53 AM 54.0 °F 51.1 °F 90% 29.82 in 8.0 mi ENE 3.5 mph - 0.06 in Rain Light Rain
4:53 AM 57.0 °F 52.0 °F 83% 29.80 in 10.0 mi SSW 10.4 mph - 0.03 in Rain Light Rain
5:53 AM 57.9 °F 51.1 °F 78% 29.80 in 10.0 mi SSW 6.9 mph 18.4 mph 0.01 in   Overcast
6:53 AM 57.9 °F 51.1 °F 78% 29.79 in 10.0 mi SSW 11.5 mph 24.2 mph 0.01 in   Overcast
7:53 AM 59.0 °F 51.1 °F 75% 29.79 in 10.0 mi SSW 11.5 mph 21.9 mph 0.00 in   Overcast
8:53 AM 60.1 °F 51.1 °F 72% 29.78 in 10.0 mi SSW 18.4 mph 26.5 mph N/A   Overcast
9:53 AM 60.1 °F 51.1 °F 72% 29.79 in 10.0 mi SSW 17.3 mph - N/A   Overcast
10:53 AM 62.1 °F 51.1 °F 67% 29.79 in 10.0 mi SSW 20.7 mph 31.1 mph 0.00 in   Overcast
11:53 AM 60.1 °F 52.0 °F 75% 29.80 in 10.0 mi SSW 20.7 mph 28.8 mph 0.01 in Rain Light Rain
12:53 PM 62.1 °F 51.1 °F 67% 29.79 in 10.0 mi SSW 19.6 mph 28.8 mph 0.00 in   Overcast
1:53 PM 60.1 °F 48.9 °F 67% 29.79 in 10.0 mi SSW 20.7 mph 27.6 mph 0.00 in   Overcast
2:53 PM 61.0 °F 50.0 °F 67% 29.80 in 10.0 mi SSW 18.4 mph 26.5 mph 0.01 in   Mostly Cloudy
3:53 PM 63.0 °F 50.0 °F 63% 29.80 in 10.0 mi SSW 13.8 mph - 0.00 in   Mostly Cloudy
4:53 PM 62.1 °F 48.9 °F 62% 29.81 in 10.0 mi SSW 21.9 mph 32.2 mph N/A   Mostly Cloudy
5:53 PM 57.0 °F 51.1 °F 81% 29.84 in 4.0 mi SSW 12.7 mph - 0.04 in Rain Light Rain
6:53 PM 57.0 °F 50.0 °F 77% 29.85 in 10.0 mi SSW 16.1 mph 21.9 mph 0.02 in Rain Light Rain
7:53 PM 57.9 °F 46.9 °F 67% 29.87 in 10.0 mi Variable 4.6 mph - 0.00 in   Partly Cloudy
8:53 PM 57.0 °F 45.0 °F 64% 29.88 in 10.0 mi SSW 13.8 mph 18.4 mph N/A   Scattered Clouds
9:53 PM 57.0 °F 43.0 °F 59% 29.89 in 10.0 mi SSW 18.4 mph 24.2 mph N/A   Overcast
10:53 PM 55.9 °F 43.0 °F 62% 29.91 in 10.0 mi SSW 16.1 mph - N/A   Overcast
11:53 PM 55.9 °F 42.1 °F 60% 29.93 in 10.0 mi SSW 12.7 mph - N/A   Overcast